FW7588 Weather Reports


time (UTC)temp
C
wind
direction
speed
KPH
gust
KPH
rain 1hr
cm
rain 24hr
cm
rain mn
cm
humidity
%
barometer
mb
20220629044518 21 65 0.0 0.0 0.00 9.78 9.78 97 986.4
20220629043047 21 65 0.0 0.0 0.00 9.78 9.78 97 986.5
20220629041518 21 66 0.0 0.0 0.00 9.78 9.78 97 986.4
20220629040013 21 65 0.0 0.0 0.00 9.78 9.78 97 986.4
20220629034549 21 65 0.0 0.0 0.00 9.78 9.78 97 986.2
20220629033035 21 65 0.0 0.0 0.00 9.78 9.78 97 986.2
20220629031516 21 65 0.0 0.0 0.03 9.78 9.78 97 986.2
20220629030055 21 65 0.0 0.0 0.05 9.78 9.78 97 986.3
20220629024537 21 65 0.0 1.6 0.08 9.78 9.78 97 986.3
20220629023018 21 49 0.0 0.0 0.08 9.78 9.78 97 986.2
20220629021600 21 61 0.0 0.0 0.08 9.75 9.75 97 986.0
20220629021510 21 61 0.0 0.0 0.08 9.75 9.75 97 986.0
20220629020048 21 61 0.0 0.0 0.13 9.73 9.73 97 986.1
20220629014528 21 349 0.0 0.0 0.15 9.70 9.70 97 986.3
20220629013008 21 349 0.0 0.0 0.15 9.70 9.70 97 986.7
20220629011545 21 349 0.0 0.0 0.13 9.68 9.68 97 986.9
20220629010021 21 349 0.0 0.0 0.25 9.60 9.60 97 987.2
20220629004512 21 349 0.0 0.0 2.03 9.55 9.55 96 987.2
20220629003046 20 345 0.0 1.6 2.72 9.55 9.55 96 987.3
20220629001528 20 34 0.0 1.6 3.07 9.55 9.55 96 987.3
20220629000110 20 256 0.0 3.2 3.53 9.37 9.40 95 987.9
20220628234534 21 103 1.6 17.7 1.91 7.47 7.57 95 988.6
20220628233010 21 18 0.0 1.6 1.27 6.83 6.83 95 988.6
20220628231546 21 113 0.0 3.2 0.89 6.45 6.50 95 987.7
20220628230017 22 112 0.0 4.8 0.23 5.77 5.82 94 987.4
20220628224552 22 211 0.0 0.0 0.00 5.56 5.56 96 987.1
20220628223037 22 53 0.0 0.0 0.00 5.56 5.56 95 987.0
20220628221527 22 104 0.0 1.6 0.00 5.56 5.56 95 985.9
20220628220054 22 78 0.0 1.6 0.41 5.56 5.56 95 985.4
20220628214534 22 84 0.0 1.6 2.74 5.56 5.56 94 985.6
20220628213010 21 225 0.0 0.0 3.99 5.56 5.56 94 985.8
20220628211548 21 143 0.0 14.5 4.37 5.56 5.56 92 985.9
20220628210054 22 148 6.4 25.7 5.03 5.08 5.23 90 986.6
20220628204533 23 334 4.8 16.1 2.74 2.82 2.84 90 987.4
20220628203010 23 355 0.0 3.2 1.45 1.55 1.63 88 986.1
20220628200045 31 130 1.6 8.0 0.00 0.08 0.08 56 986.3
20220628194507 33 25 1.6 6.4 0.00 0.08 0.08 51 986.2
20220628193022 33 82 1.6 9.7 0.00 0.08 0.08 56 986.6
20220628191550 32 6 1.6 14.5 0.00 0.08 0.08 59 986.5
20220628190007 31 304 1.6 11.3 0.05 0.08 0.08 64 987.0
20220628184523 29 75 1.6 8.0 0.08 0.08 0.08 73 987.4
20220628183046 27 271 0.0 1.6 0.08 0.08 0.08 84 987.9
20220628181512 26 341 0.0 0.0 0.08 0.08 0.08 83 988.3
20220628180038 27 73 0.0 8.0 0.03 0.03 0.03 79 988.5
20220628174550 27 65 1.6 12.9 0.00 0.00 0.00 76 988.3
20220628173011 28 54 1.6 11.3 0.00 0.00 0.00 67 988.2
20220628171637 29 21 1.6 14.5 0.00 0.00 0.00 66 988.4
20220628170049 30 55 1.6 6.4 0.00 0.00 0.00 65 988.3
20220628164518 30 318 1.6 6.4 0.00 0.00 0.00 64 988.5
20220628163034 29 130 0.0 6.4 0.00 0.00 0.00 65 988.6
20220628161546 29 345 1.6 8.0 0.00 0.00 0.00 63 988.4
20220628160006 29 50 0.0 6.4 0.00 0.00 0.00 64 988.4
20220628154532 28 122 0.0 8.0 0.00 0.00 0.00 64 988.4
20220628153054 28 115 0.0 11.3 0.00 0.00 0.00 64 988.3
20220628151504 28 49 3.2 9.7 0.00 0.00 0.00 64 988.3
20220628150027 27 118 0.0 3.2 0.00 0.00 0.00 64 988.1
20220628144551 27 322 1.6 9.7 0.00 0.00 0.00 64 988.1
20220628143119 27 104 0.0 3.2 0.00 0.00 0.00 65 988.1
20220628141526 26 8 0.0 4.8 0.00 0.00 0.00 65 988.0
20220628140052 26 62 0.0 3.2 0.00 0.00 0.00 66 987.9
20220628134512 25 100 0.0 1.6 0.00 0.00 0.00 68 987.8
20220628133032 25 88 0.0 1.6 0.00 0.00 0.00 70 987.5
20220628131535 25 112 0.0 0.0 0.00 0.00 0.00 70 987.4
20220628130057 24 112 0.0 1.6 0.00 0.00 0.00 70 987.2
20220628124521 24 11 0.0 0.0 0.00 0.00 0.00 71 987.0
20220628123033 23 330 0.0 1.6 0.00 0.00 0.00 71 986.8
20220628121506 23 329 0.0 0.0 0.00 0.00 0.00 72 986.7
20220628120034 23 330 0.0 0.0 0.00 0.00 0.00 70 986.6
20220628114506 23 329 0.0 0.0 0.00 0.00 0.00 70 986.7
20220628113038 24 329 0.0 0.0 0.00 0.00 0.00 69 986.9
20220628111509 24 329 0.0 1.6 0.00 0.00 0.00 68 986.8
20220628110028 24 342 0.0 0.0 0.00 0.00 0.00 67 986.9
20220628104545 24 344 0.0 0.0 0.00 0.00 0.00 67 987.0
20220628103013 24 49 0.0 1.6 0.00 0.00 0.00 67 986.8
20220628101544 24 1 0.0 1.6 0.00 0.00 0.00 68 986.8
20220628100021 24 336 0.0 1.6 0.00 0.00 0.00 68 986.6
20220628094532 25 45 0.0 1.6 0.00 0.00 0.00 68 986.5
20220628093059 25 93 0.0 4.8 0.00 0.00 0.00 68 986.6
20220628091522 25 47 1.6 6.4 0.00 0.00 0.00 70 986.7
20220628090048 24 53 0.0 3.2 0.00 0.00 0.00 71 986.7
20220628083023 23 87 0.0 4.8 0.00 0.00 0.00 75 986.9
20220628081549 23 324 0.0 0.0 0.00 0.00 0.00 77 987.1
20220628080018 23 196 0.0 1.6 0.00 0.00 0.00 77 987.3
20220628074546 23 39 0.0 0.0 0.00 0.00 0.00 77 987.4
20220628073100 23 300 0.0 4.8 0.00 0.00 0.00 76 987.6
20220628071527 23 286 0.0 0.0 0.00 0.00 0.00 75 987.7
20220628070044 23 259 0.0 1.6 0.00 0.00 0.00 76 987.8
20220628064508 23 317 0.0 0.0 0.00 0.00 0.00 76 987.8
20220628063036 23 239 0.0 3.2 0.00 0.00 0.00 76 988.0
20220628061559 23 233 0.0 1.6 0.00 0.00 0.00 76 988.0
20220628060010 23 354 0.0 3.2 0.00 0.00 0.00 75 988.0
20220628054537 23 72 0.0 0.0 0.00 0.00 0.00 75 988.1
20220628053004 23 64 0.0 3.2 0.00 0.00 0.00 75 988.3
20220628051530 24 72 0.0 6.4 0.00 0.00 0.00 74 988.5
20220628050040 24 251 0.0 6.4 0.00 0.00 0.00 72 988.5